Volver al catálogo

USA 245

ActivoMilitarSSO
NORAD 39232·PAYLOAD·🇺🇸 United States

Lanzado Aug 28, 2013 desde Vandenberg Space Force Base

Loading…

Próximos Pases (próximas 24 horas)

TLE

EnvejeciendoSource: Mike McCants

Época: Sep 6, 2026, 21:14 UTC

1 39232U 13043A   26249.88495222 0.00016000  00000-0  16777-3 0    04
2 39232  97.9380 311.4356 0524811 209.2641 150.7358 14.78062637    08

Sigue USA 245 en tiempo real con AllMySat

Download on the App Store